{"data":{"norad_id":66900,"intl_designator":"2025-283Y","name":"STARLINK-36074","alt_names":[],"object_type":"PAYLOAD","status":"ACTIVE","operator":null,"country":"US","launch_date":"2025-12-04","launch_site_code":"AFWTR","launch_vehicle":null,"mission":null,"orbit_class":"UNKNOWN","rcs_meters":null,"size_class":null,"mass_kg":null,"dimensions":null,"purposes":["comms"],"wikipedia_slug":null,"has_3d_model":false,"image_url":null,"decayed_at":null,"tle_current":{"epoch":"2026-09-20T04:28:44.306688Z","epoch_age_seconds":111228,"freshness":"FRESH","line1":"1 66900U 25283Y   26263.18662392  .00023592  00000+0  70689-3 0  9990","line2":"2 66900  53.1574 197.1252 0001363  98.5973 261.5184 15.34413205 45676","mean_motion":15.34413205,"eccentricity":0.0001363,"inclination_deg":53.1574,"raan_deg":197.1252,"arg_perigee_deg":98.5973,"mean_anomaly_deg":261.5184,"bstar":0.00070689,"rev_number":4567,"period_min":93.846950437317,"perigee_km":461.73159127048,"apogee_km":463.59639362102,"semimajor_km":6840.8009924457,"source":"CELESTRAK","updated_at":"2026-09-21T09:00:36.053983Z"}}}